Location: Adamsville (historical)
(42.2426°N, 71.0706°W)
Time: 05:53:40
(UTC+00:00)

Daily predictions for brighter satellites

Satellite Brightness Start Highest point End
(mag) Time Altitude Azimuth Time Altitude Azimuth Time Altitude Azimuth
Cosmos 1833 Rocket 4.3 00:34:06 10° N 00:38:19 21° NE 00:42:31 10° E
Cosmos 407 Rocket 4.2 00:33:48 10° N 00:38:53 42° ENE 00:43:56 10° SE
Cosmos 1862 Rocket 4.2 00:34:37 10° SSW 00:39:00 63° W 00:43:22 10° N
STARLINK-1162 3.7 00:35:15 10° NW 00:39:24 82° SW 00:43:31 10° SE
CZ-2C R/B 3.7 00:37:08 10° NNE 00:41:34 61° ESE 00:46:02 10° S
CZ-2C R/B 2.9 00:36:10 10° NNE 00:41:44 60° E 00:47:15 10° S
ARGOS 3.7 00:36:46 10° S 00:42:04 63° WSW 00:47:26 10° NNW
Aureole 1 Rocket 4.2 00:38:30 10° N 00:42:23 33° ENE 00:47:18 10° SE
STARLINK-1201 3.6 00:39:02 10° SW 00:43:09 72° SE 00:47:17 10° ENE
Cosmos 1666 3.9 00:41:43 10° NNW 00:45:24 44° W 00:49:03 10° SSW
SL-08 RB Rocket 4.0 00:41:48 10° S 00:46:24 73° WSW 00:51:00 10° NNW
STARLINK-1206 3.6 00:43:59 10° SW 00:48:06 79° SE 00:52:15 10° NE
Cosmos 1975 3.8 00:45:32 10° NNE 00:49:09 30° ENE 00:52:44 10° SE
STARLINK-1159 3.8 00:45:11 10° WNW 00:49:19 69° SW 00:53:25 10° SE
NOSS 2-3 (D) 3.6 00:47:49 10° SSW 00:51:55 59° ESE 00:56:37 10° NE
STARLINK-1205 3.6 00:48:57 10° SW 00:53:05 85° SE 00:57:14 10° NE
Abrixas rocket 3.8 00:51:13 10° W 00:53:55 31° NNW 00:56:36 10° NE
STARLINK-1171 3.9 00:50:13 10° WNW 00:54:19 62° SW 00:58:24 10° SE
Okean 1 3.3 00:50:35 10° S 00:54:34 67° E 00:58:37 10° NNE
Meteor 1-4 Rocket 3.3 00:54:14 10° SSE 00:57:16 30° E 01:00:19 10° NNE
STARLINK-1218 3.6 00:53:54 10° SW 00:58:02 88° NW 01:02:12 10° NE
SPOT 3 Rocket 3.6 00:53:35 10° SSE 00:58:43 87° ENE 01:03:54 10° NNW
STARLINK-1155 4.0 00:55:11 10° WNW 00:59:15 57° SW 01:03:10 11° SE
USA 186 4.0 00:58:13 10° SW 00:59:58 18° W 01:01:49 10° NW
Cosmos 909 Rocket 4.5 00:53:28 10° NNW 01:01:24 70° NE 01:07:42 11° SE
Cosmos 1515 4.0 00:57:49 10° SSE 01:01:27 45° E 01:05:07 10° NNE
USA 229 DEB 4.1 00:56:14 10° SW 01:02:41 67° NW 01:09:32 10° NNE
USA 229 4.1 00:56:21 10° SW 01:02:48 68° NW 01:09:38 10° NNE
ISS -1.3 01:00:26 10° NW 01:02:54 18° N 01:05:21 10° ENE
STARLINK-1254 3.7 00:58:53 10° SW 01:03:01 81° NW 01:07:11 10° NE
Cosmos 1190 Rocket 4.3 00:57:59 10° NNW 01:03:07 56° ENE 01:08:01 11° SE
STARLINK-1166 4.1 01:00:11 10° WNW 01:04:13 51° SW 01:07:57 12° SSE
Cosmos 614 Rocket 3.9 00:59:38 10° NNW 01:04:44 88° ENE 01:09:51 10° SSE
Cosmos 1624 Rocket 4.1 00:59:38 10° S 01:04:52 64° ESE 01:10:10 10° NNE
Resurs 01 Rocket 1.7 01:01:40 10° SSE 01:06:04 65° ENE 01:10:30 10° N
Cosmos 2278 Rocket 2.6 01:01:10 10° S 01:06:27 41° ESE 01:11:44 10° NE
STARLINK-1089 4.4 01:02:29 10° NW 01:06:28 44° NNE 01:10:25 10° ESE
Cosmos 44 Rocket 4.1 01:01:47 10° NW 01:06:30 48° WSW 01:11:16 10° S
Cosmos 1140 Rocket 3.8 01:01:40 10° N 01:06:46 54° ENE 01:11:28 12° SE
STARLINK-1087 2.9 01:05:54 10° WNW 01:07:43 31° SW 01:08:54 16° SSE
STARLINK-1231 3.9 01:03:53 10° WSW 01:08:01 75° NW 01:12:10 10° NE
Cosmos 1782 Rocket 3.7 01:04:10 10° N 01:08:37 61° E 01:13:02 10° SSE
STARLINK-1165 4.3 01:05:12 10° WNW 01:09:10 47° SW 01:12:43 12° SSE
NOSS 3-1 (C) 4.2 01:04:19 10° SW 01:09:39 53° NW 01:15:51 10° NNE
Sich 1 Rocket 4.2 01:05:39 10° N 01:10:02 42° ENE 01:13:51 13° SE
H-2A R/B 4.0 01:05:59 10° SSW 01:10:10 27° W 01:14:28 10° NW
Cosmos 1844 Rocket 4.3 01:05:55 10° SW 01:11:13 40° WNW 01:16:33 10° N
STARLINK-1107 4.3 01:07:27 10° NW 01:11:28 47° NNE 01:15:12 12° ESE
NOSS 3-1 (A) 3.4 01:06:26 10° SW 01:11:51 80° NW 01:18:09 10° NE
STARLINK-1232 4.0 01:08:53 10° WSW 01:13:00 69° NNW 01:17:08 10° NE
Cosmos 1703 Rocket 3.7 01:08:53 10° SSW 01:13:12 78° W 01:17:32 10° N
STARLINK-1169 4.4 01:10:12 10° WNW 01:14:08 42° SW 01:17:30 13° SSE
STARLINK-1224 4.4 01:11:54 10° SSW 01:15:29 29° SE 01:19:06 10° ENE
CREW DRAGON DEMO-1 DEB 3.0 01:13:00 10° WNW 01:16:04 63° SW 01:18:11 18° SE
STARLINK-1066 4.2 01:12:26 10° NW 01:16:30 51° NNE 01:20:01 13° ESE
STARLINK-1208 4.1 01:13:53 10° WSW 01:17:59 63° NW 01:22:07 10° NE
SL-4 R/B 3.7 01:17:02 10° NNE 01:18:37 13° NE 01:20:10 10° ENE
Meteor 1-19 Rocket 4.2 01:13:19 10° S 01:18:52 79° E 01:24:39 10° NNE
Cosmos 1371 Rocket 4.1 01:14:15 10° SSW 01:19:30 84° WNW 01:24:46 10° NNE
Cosmos 2034 Rocket 4.5 01:13:41 10° NNW 01:19:46 62° W 01:25:48 10° S
STARLINK-1225 4.3 01:16:44 10° SSW 01:20:25 32° SE 01:24:08 10° ENE
STARLINK-1081 4.1 01:17:23 10° NW 01:21:28 55° NNE 01:24:47 15° ESE
NOSS 2-3 (C) 4.0 01:18:24 10° SW 01:22:37 69° NW 01:27:33 10° NNE
STARLINK-1271 4.3 01:18:53 10° WSW 01:22:58 59° NNW 01:27:04 10° NE
Okean 2 Rocket 3.9 01:19:27 10° N 01:23:32 35° ENE 01:26:17 18° SE
ERS-1 Rocket 4.3 01:20:13 13° ESE 01:23:34 26° ENE 01:27:42 10° N
Cosmos 1544 3.0 01:20:31 10° N 01:24:10 74° E 01:27:02 15° SSE
STARLINK-1230 4.1 01:21:36 10° SSW 01:25:23 35° SE 01:29:11 10° ENE
Crew Dragon 3.1 01:25:00 10° N 01:25:31 11° NNE 01:26:02 10° NNE
Terra 3.7 01:22:42 10° E 01:25:31 16° ENE 01:28:26 10° NNE
STARLINK-1070 4.0 01:22:21 10° NW 01:26:27 59° NNE 01:29:33 17° ESE
Cosmos 389 Rocket 4.2 01:23:46 10° SW 01:26:56 34° WNW 01:30:10 10° N
SAR-Lupe-2 4.1 01:23:34 10° NNE 01:26:58 39° E 01:29:21 17° SSE
STARLINK-1154 4.4 01:23:54 10° WSW 01:27:58 54° NNW 01:32:02 10° NE
Cosmos 1954 Rocket 4.3 01:24:02 10° NNW 01:29:12 55° ENE 01:33:00 18° SE
NOSS 3 (A) 4.1 01:26:51 10° SSW 01:29:29 68° ESE 01:32:16 10° NE
STARLINK-1243 4.0 01:26:28 10° SSW 01:30:20 39° SE 01:34:12 10° ENE
Hubble Space Telescope 2.9 01:29:46 10° SSW 01:30:55 11° S 01:31:25 11° S
STARLINK-1069 3.9 01:27:19 10° NW 01:31:26 64° NNE 01:34:20 19° ESE
BREEZE M DEB (TANK) 3.3 01:25:28 10° SW 01:34:03 63° SSE 01:36:59 10° ENE
Lacrosse 5 3.1 01:29:44 10° NW 01:34:22 34° NNE 01:38:37 12° E
Spot 2 Rocket 3.6 01:31:06 17° SSE 01:34:58 62° ENE 01:39:57 10° N
STARLINK-1236 3.9 01:31:23 10° SSW 01:35:18 43° SE 01:39:14 10° ENE
Cosmos 1356 4.2 01:33:04 10° NNW 01:36:24 48° W 01:39:27 12° S
STARLINK-1085 3.8 01:32:18 10° NW 01:36:26 69° NNE 01:39:08 21° ESE
Iridium 51 4.4 01:32:27 10° S 01:36:34 77° W 01:40:22 10° N
Cosmos 2151 Rocket 4.5 01:32:56 10° N 01:37:05 34° ENE 01:39:25 21° SE
Cosmos 371 Rocket 3.7 01:34:23 14° S 01:38:12 41° ESE 01:42:46 10° NE
STARLINK-1086 3.7 01:37:15 10° NW 01:41:24 75° NE 01:43:54 23° ESE
Cosmos 2279 Rocket 4.2 01:36:05 10° N 01:42:13 55° ENE 01:46:29 20° SSE
Cosmos 676 Rocket 4.0 01:38:20 10° NNW 01:43:36 76° ENE 01:47:09 21° SSE
MetOp-B 4.1 01:39:50 15° SSE 01:44:16 88° WSW 01:49:39 10° NNW
STARLINK-1269 3.7 01:41:10 10° SSW 01:45:12 52° SE 01:49:14 10° ENE
COSMOS 2406 3.3 01:40:20 10° NNW 01:46:07 81° WSW 01:50:16 20° SSE
STARLINK-1095 3.6 01:42:15 10° NW 01:46:24 82° NE 01:48:42 26° ESE
Meteor 2-4 Rocket 3.5 01:42:13 10° S 01:47:37 86° E 01:52:59 10° N
Cosmos 2056 Rocket 4.2 01:42:57 10° SW 01:47:57 55° WNW 01:52:59 10° NNE
Meteor 1-12 Rocket 4.3 01:42:54 10° N 01:48:32 65° ENE 01:52:17 22° SSE
IGS 5A 3.4 01:47:13 24° SSE 01:49:38 70° ENE 01:53:47 10° N
STARLINK-1200 3.6 01:46:07 10° SW 01:50:10 57° SE 01:54:15 10° ENE
STARLINK-1077 3.5 01:47:13 10° NW 01:51:23 88° NNE 01:53:28 28° SE
CARTOSAT-1 4.2 01:52:54 26° SE 01:54:51 42° ENE 01:58:55 10° N
STARLINK-1192 3.5 01:51:04 10° SW 01:55:09 63° SE 01:59:16 10° ENE
Okean 3 3.5 01:51:41 13° S 01:55:31 81° W 01:59:51 10° N
Meteor 1-13 Rocket 4.2 01:51:21 16° S 01:55:50 67° E 02:01:29 10° NNE
STARLINK-1075 3.5 01:52:12 10° NW 01:56:22 85° SW 01:58:15 31° SE
GPS 2-04 Rocket1 4.4 01:54:33 10° SW 01:55:48 16° SSW 01:55:48 16° SSW
Aureole 2 Rocket 4.4 02:00:20 14° ENE 02:00:20 14° ENE 02:01:14 10° ENE
Cosmos 1634 Rocket 4.3 01:53:29 10° NNW 01:59:46 69° W 02:05:16 14° S
STARLINK-1244 3.5 01:56:01 10° SW 02:00:07 69° SE 02:04:15 10° ENE
STARLINK-1093 3.6 01:57:11 10° NW 02:01:21 78° SW 02:03:03 34° SE
Cosmos 1461 3.7 02:04:40 30° ESE 02:04:40 30° ESE 02:08:20 10° NE
STARLINK-1138 3.5 02:00:57 10° SW 02:05:04 76° SE 02:09:13 10° NE
Cosmos 2297 4.3 02:03:00 26° SE 02:05:08 35° ESE 02:10:17 10° NE
STARLINK-1074 3.6 02:02:10 10° WNW 02:06:18 71° SW 02:07:49 37° SE
GENESIS II 4.3 02:02:20 10° NW 02:06:21 72° WSW 02:07:49 36° SSE
STARLINK-1143 3.5 02:05:54 10° SW 02:10:02 83° SE 02:14:11 10° NE
SPOT 5 3.2 02:07:41 29° SE 02:10:11 60° ENE 02:15:24 10° N
NOSS 8 (F) 4.2 02:11:36 55° SSE 02:11:52 57° ESE 02:14:51 10° NE
ERBS 3.6 02:09:47 10° WSW 02:12:56 41° NW 02:16:06 10° NE
STARLINK-1203 3.6 02:10:09 10° SW 02:14:21 90° ENE 02:18:34 10° NE
BREEZE-M DEB (TANK) 4.5 01:58:28 10° WNW 02:14:29 64° NNE 02:18:23 17° E
STARLINK-1241 3.5 02:10:53 10° SW 02:15:01 90° SE 02:19:11 10° NE
Cosmos 1300 Rocket 3.7 02:10:57 10° NNW 02:15:25 73° W 02:17:36 29° S
STARLINK-1088 3.8 02:12:09 10° WNW 02:16:14 59° SW 02:17:23 41° SSE
Landsat 7 4.2 02:15:16 24° S 02:18:02 59° W 02:22:45 10° NNW
Cosmos 1452 Rocket 3.5 02:13:27 10° SSW 02:18:39 83° WNW 02:23:58 10° NNE
Cosmos 2082 Rocket 2.2 02:13:12 10° NNW 02:18:56 73° ENE 02:21:36 33° SE
STARLINK-1239 3.6 02:15:51 10° SW 02:20:00 83° NW 02:24:09 10° NE
STARLINK-1115 3.9 02:17:09 10° WNW 02:21:12 53° SW 02:22:10 42° S
Cosmos 304 Rocket 3.9 02:20:05 37° SSE 02:21:32 50° ESE 02:26:10 10° NNE
Cosmos 1833 Rocket 2.9 02:17:10 10° NNW 02:22:44 65° WSW 02:25:34 29° S
Cosmos 2180 Rocket 4.5 02:17:13 10° N 02:23:39 89° E 02:27:14 28° S
STARLINK-1240 3.7 02:20:51 10° WSW 02:24:59 77° NW 02:29:09 10° NE
STARLINK-1076 4.0 02:22:09 10° WNW 02:26:09 48° SW 02:26:57 42° S
STARLINK-1082 4.4 02:24:25 10° NW 02:28:26 46° NNE 02:30:08 29° E
Cosmos 1674 Rocket 3.5 02:28:04 36° S 02:29:49 87° W 02:34:14 10° N
Abrixas rocket 4.2 02:27:27 10° NW 02:29:57 24° N 02:31:37 15° NE
STARLINK-1216 3.8 02:25:50 10° WSW 02:29:58 71° NW 02:34:06 10° NE
STARLINK-1092 4.1 02:27:08 10° WNW 02:31:05 44° SW 02:31:42 41° SSW
Cosmos 2369 Rocket 3.8 02:31:29 18° E 02:31:29 18° E 02:34:49 10° ENE
Cosmos 332 Rocket 3.8 02:28:28 21° SSW 02:31:49 82° WNW 02:36:45 10° NNE
Cosmos 1943 Rocket 3.2 02:33:19 26° ESE 02:33:24 26° ESE 02:37:56 10° NE
STARLINK-1100 4.3 02:29:24 10° NW 02:33:27 49° NNE 02:34:55 33° E
STARLINK-1237 4.0 02:30:50 10° WSW 02:34:57 65° NNW 02:39:05 10° NE
Cosmos 1378 Rocket 3.4 02:34:29 44° S 02:35:50 82° E 02:40:15 10° N
STARLINK-1080 4.3 02:32:13 10° WNW 02:36:06 40° SW 02:36:32 38° SSW
STARLINK-1083 4.1 02:34:20 10° NW 02:38:24 53° NNE 02:39:40 37° E
Cosmos 1066 Rocket 4.0 02:36:48 34° S 02:39:15 82° E 02:44:39 10° NNE
STARLINK-1202 4.1 02:35:51 10° WSW 02:39:56 60° NNW 02:44:04 10° NE
ISS -3.3 02:36:56 10° NW 02:40:15 52° NNE 02:40:32 50° NE
Cosmos 1437 Rocket 3.2 02:39:15 33° SW 02:40:38 53° WNW 02:44:22 10° N
STARLINK-1090 4.4 02:37:12 10° WNW 02:41:01 36° SW 02:41:17 36° SW
Resurs 01 Rocket 4.3 02:41:13 10° WSW 02:42:59 12° W 02:44:45 10° WNW
STARLINK-1125 4.0 02:39:19 10° NW 02:43:24 57° NNE 02:44:28 42° E
EXPRESS MD2 3.6 02:40:46 10° WSW 02:44:07 84° NNW 02:50:49 10° ENE
USA 215 4.4 02:38:16 10° E 02:44:15 39° NNE 02:50:13 10° NW
Okean 2 4.2 02:44:32 35° E 02:44:32 35° E 02:48:06 10° NNE
ATLAS 3B CENTAUR R/B 4.2 02:38:01 10° SW 02:43:50 20° SSW 02:43:50 20° SSW
SPOT 1/Viking Rocket 4.5 02:42:36 24° SSW 02:45:16 41° W 02:50:10 10° NNW
STARLINK-1109 3.9 02:44:17 10° NW 02:48:24 62° NNE 02:49:16 48° E
NOSS 2-2 (D) 4.2 02:49:49 32° ENE 02:49:49 32° ENE 02:52:10 10° NE
Cosmos 1975 Rocket 3.8 02:48:57 38° E 02:48:59 38° E 02:53:05 10° NNE
STARLINK-1246 4.4 02:45:53 10° WSW 02:49:55 52° NNW 02:53:59 10° NE
Cosmos 2278 Rocket 4.0 02:45:39 10° WSW 02:50:37 31° NW 02:55:38 10° N
Meteor 1-15 Rocket 4.3 02:45:26 10° NNW 02:51:23 79° W 02:53:45 39° S
SL-4 R/B 2.7 02:49:04 10° NW 02:51:20 32° W 02:51:20 32° W
STARLINK-1091 3.8 02:49:14 10° NW 02:53:23 67° NE 02:54:02 56° E
Cosmos 1741 Rocket 4.1 02:48:57 10° NNW 02:54:09 70° WSW 02:55:39 45° S
Cosmos 972 Rocket 4.4 02:51:11 28° SSW 02:54:34 86° WNW 03:01:18 10° NNE
STARLINK-1072 3.6 02:54:13 10° NW 02:58:21 73° NE 02:58:48 65° E
Crew Dragon 3.5 02:57:17 10° NW 02:57:36 13° NW 02:57:36 13° NW
SeaSat 1 2.4 02:55:20 10° NE 03:00:13 58° ESE 03:00:45 54° SE
ERS-1 Rocket 4.0 03:00:13 28° SW 03:02:10 38° W 03:06:51 10° NNW
Terra 2.1 03:01:35 45° SSW 03:02:46 59° W 03:07:28 10° NNW
STARLINK-1096 3.5 02:59:12 10° NW 03:03:21 79° NE 03:03:36 75° E
Cosmos 2026 Rocket 4.2 03:01:47 43° SE 03:03:30 56° E 03:09:40 10° NNE
BREEZE-M DEB (TANK) 4.1 02:47:08 10° WSW 03:05:06 74° NNW 03:09:23 10° ENE
Cosmos 1766 3.3 03:01:51 10° N 03:05:44 71° ENE 03:05:44 71° ENE
CENTAUR R/B 4.3 02:59:27 10° NNW 03:06:35 35° NE 03:14:03 11° E
NOSS 2-2 (E) 3.1 03:07:04 77° NNW 03:07:04 77° NNW 03:10:50 10° NNE
STARLINK-1079 3.5 03:04:11 10° NW 03:08:21 86° NE 03:08:24 85° ENE
Cosmos 1110 Rocket 4.1 03:09:30 37° SW 03:11:31 72° WNW 03:16:43 10° NNE
Cosmos 1733 3.5 03:08:03 10° N 03:11:27 58° NE 03:11:27 58° NE
STARLINK-1116 3.5 03:09:09 10° NW 03:13:10 83° WNW 03:13:10 83° WNW
Okean 1 Rocket 3.7 03:09:06 10° NNW 03:13:25 48° W 03:14:11 43° SW
Spot 4 4.3 03:15:11 43° E 03:15:52 47° ENE 03:20:31 10° N
Lacrosse 5 2.1 03:12:36 10° NW 03:17:30 51° SW 03:17:49 50° SW
ATLAS 5 CENTAUR R/B4.503:26:14NE03:26:14NE03:10:39SSW
STARLINK-1094 3.8 03:19:09 10° NW 03:22:45 63° W 03:22:45 63° W
Cosmos 1455 Rocket 3.2 03:19:45 10° N 03:23:58 60° ENE 03:23:58 60° ENE
Cosmos 1025 Rocket 4.4 03:25:25 27° ENE 03:25:25 27° ENE 03:28:24 10° NNE
STARLINK-1117 4.0 03:24:07 10° WNW 03:27:31 54° W 03:27:31 54° W
NOSS 2-2 (C) 3.7 03:30:27 55° NW 03:30:27 55° NW 03:34:08 10° NNE
ATLAS 2AS CENTAUR R/B 3.5 03:30:08 37° SE 03:31:07 38° ESE 03:38:18 10° NE
Cosmos 1758 4.4 03:28:20 10° N 03:31:38 35° ENE 03:31:38 35° ENE
Aureole 2 Rocket 4.4 03:32:21 21° WNW 03:32:33 21° WNW 03:34:59 10° NNW
STARLINK-1078 4.3 03:29:07 10° WNW 03:32:19 47° W 03:32:19 47° W
Cosmos 1302 Rocket 3.9 03:38:22 65° SSW 03:39:10 88° WNW 03:44:31 10° NNE
NOSS 3-2 (A) 4.2 03:32:03 10° NNW 03:39:37 70° NE 03:43:28 35° SE
SL-27 R/B 3.8 03:37:34 10° N 03:40:12 37° NNE 03:40:12 37° NNE
SL-4 R/B 4.5 03:46:35 16° ENE 03:46:35 16° ENE 03:47:44 10° ENE
COSMOS 2455 4.2 03:45:07 23° E 03:45:07 23° E 03:49:00 10° NE
EO 1 Del DPAF 3.8 03:40:40 10° N 03:43:55 55° NW 03:43:55 55° NW
STARLINK-1106 4.5 03:41:23 10° NW 03:45:23 45° NNE 03:45:48 43° NE
Nimbus 7 Rocket 4.5 03:40:36 10° NNE 03:46:38 62° ESE 03:47:30 56° SE
Cosmos 1900 4.3 03:41:58 10° NNW 03:47:02 79° ENE 03:47:24 74° ESE
Cosmos 1470 3.4 03:43:52 10° N 03:46:57 50° NNE 03:46:57 50° NNE
USA 238 DEB 3.9 03:41:04 10° NNW 03:48:20 76° NE 03:51:05 42° SE
USA 238 3.9 03:41:10 10° NNW 03:48:26 75° NE 03:51:13 42° SE
Cosmos 1536 Rocket 4.3 03:49:18 43° ENE 03:49:18 43° ENE 03:52:47 10° NNE
STARLINK-1112 4.3 03:46:23 10° NW 03:50:25 48° NNE 03:50:36 48° NE
ALOS 2 3.1 03:53:11 52° ENE 03:53:11 52° ENE 03:57:17 10° N
STARLINK-1128 4.2 03:51:21 10° NW 03:55:23 52° NNE 03:55:23 52° NNE
Cosmos 1544 Rocket 3.7 03:55:49 10° NNW 03:59:43 68° NW 03:59:43 68° NW
APEX 4.4 03:59:20 60° SSE 04:00:20 71° ESE 04:06:07 10° NNE
STARLINK-1113 4.2 03:56:18 10° NW 04:00:09 55° NNE 04:00:09 55° NNE
Cosmos 2082 Rocket 4.2 03:59:00 10° WNW 04:02:19 16° W 04:03:27 15° WSW
Cosmos 1417 Rocket 4.4 03:57:43 10° N 04:04:04 88° E 04:05:18 61° S
STARLINK-1119 4.2 04:01:16 10° NW 04:04:56 56° N 04:04:56 56° N
Thor Agena Rocket 4.4 04:00:29 10° N 04:05:32 46° WNW 04:07:01 36° WSW
SL-8 R/B 3.8 04:03:38 10° WNW 04:08:26 70° NNE 04:08:51 66° ENE
Cosmos 1992 Rocket 4.0 04:08:52 67° E 04:08:52 67° E 04:13:55 10° NNE
Cosmos 1726 3.6 04:06:39 10° N 04:09:11 33° NE 04:09:11 33° NE
STARLINK-1114 4.2 04:06:14 10° NW 04:09:43 55° NNW 04:09:43 55° NNW
ATLAS CENTAUR R/B 3.4 04:13:52 20° ENE 04:13:52 20° ENE 04:15:32 10° NE
Aureole 3 Rocket 4.3 04:07:16 10° NNW 04:13:03 68° W 04:14:58 49° SSW
Cosmos 2369 Rocket 2.4 04:13:14 50° WSW 04:14:32 65° WNW 04:20:11 10° NNE
Meteor 2-8 Rocket 4.3 04:08:51 10° N 04:15:01 85° E 04:16:00 65° SSE
STARLINK-1130 (DARKSAT) 4.3 04:11:13 10° NW 04:14:31 52° NNW 04:14:31 52° NNW
Cosmos 1943 Rocket 3.0 04:14:48 31° WSW 04:16:51 45° WNW 04:22:12 10° NNE
STARLINK-1084 4.4 04:16:10 10° NW 04:19:16 48° NW 04:19:16 48° NW
FALCON 9 R/B 4.0 04:25:00 26° ESE 04:25:00 26° ESE 04:31:22 10° E
USA 215 3.1 04:25:17 54° SSE 04:26:55 79° SW 04:33:30 10° NW
Cosmos 1242 Rocket 4.4 04:27:39 26° NW 04:27:39 26° NW 04:30:14 10° NNW
Cosmos 2292 Rocket 4.0 04:28:06 52° NNE 04:28:06 52° NNE 04:30:56 10° NNE
BREEZE-M DEB (TANK) 3.3 04:22:19 10° WNW 04:30:37 79° WNW 04:30:37 79° WNW
S3M 3.9 04:26:10 10° NNW 04:32:18 71° W 04:33:15 61° SW
Cosmos 1655 Rocket 4.1 04:35:12 53° SW 04:36:27 64° W 04:42:40 10° N
YAOGAN 11 4.4 04:39:42 65° NNE 04:39:42 65° NNE 04:43:36 10° N
Cosmos 1271 Rocket 4.3 04:40:47 29° WNW 04:40:47 29° WNW 04:43:41 10° N
Helios 1A 3.4 04:42:08 59° NNW 04:42:08 59° NNW 04:45:36 10° NNW
NOSS 3-2 (C) 4.0 04:38:24 10° NW 04:46:06 78° WSW 04:48:46 48° SSE
Cosmos 1707 4.4 04:49:05 28° WNW 04:49:05 28° WNW 04:51:56 10° NNW
Meteor 2-5 Rocket 4.0 04:49:14 49° ESE 04:49:38 50° E 04:55:00 10° NNE
Helios 1B rocket 3.4 04:48:18 10° NNE 04:51:26 41° ENE 04:51:26 41° ENE
NOSS 3-4 (A) 3.4 04:52:00 57° WSW 04:53:16 77° NW 04:59:34 10° NNE
NOSS 3-4 (C) 3.4 04:52:07 58° SW 04:53:22 78° NW 04:59:41 10° NE
Cosmos 1503 Rocket 4.1 04:50:01 10° NNW 04:55:11 63° W 04:55:11 63° W
ATLAS 3B R/B 3.2 04:49:32 10° NNW 04:56:15 58° NE 05:00:19 26° ESE
Cosmos 1340 Rocket 3.8 04:52:35 10° NNW 04:55:32 43° NW 04:55:32 43° NW
Cosmos 1656 Rocket 4.0 04:55:34 51° WSW 04:56:35 59° WNW 05:02:07 10° NNE
Exosat Rocket 4.5 04:48:06 10° NNW 04:57:46 87° WSW 04:59:52 52° SSE
Cosmos 1953 3.7 04:54:19 10° NNW 04:57:00 33° NW 04:57:00 33° NW
CENTAUR R/B 3.1 04:49:53 10° NW 04:58:06 77° WSW 05:01:10 45° SSE
Cosmos 968 Rocket 4.2 04:53:21 10° NNW 04:57:43 40° W 04:57:43 40° W
Cosmos 1674 3.8 05:02:07 43° N 05:02:07 43° N 05:04:46 10° N
PSLV R/B 4.0 04:58:54 10° NNE 05:03:00 60° ENE 05:03:00 60° ENE
Cosmos 1892 Rocket 4.0 05:04:00 54° ENE 05:04:00 54° ENE 05:07:49 10° NNE
In-Cosmos 22 4.4 05:04:34 49° W 05:05:03 51° WNW 05:10:13 10° N
Cosmos 1833 4.4 05:04:44 10° NNW 05:10:06 53° WSW 05:10:06 53° WSW
Cosmos 1354 Rocket 4.4 05:06:26 10° NNW 05:11:18 50° W 05:11:18 50° W
Cosmos 1726 Rocket 3.7 05:09:38 10° N 05:13:26 68° N 05:13:26 68° N
Cosmos 1867 3.4 05:10:01 10° NW 05:15:31 81° WSW 05:15:45 79° SSW
ATLAS 2AS CENTAUR R/B 3.5 05:17:31 28° WSW 05:21:54 57° NW 05:29:43 10° NNE
SL-4 R/B 2.8 05:22:06 49° WNW 05:23:00 58° NNW 05:27:45 10° NE
Cosmos 2297 Rocket 4.1 05:19:41 10° N 05:24:21 26° NE 05:29:00 10° ESE
Meteor 2-14 Rocket 4.3 05:25:33 62° S 05:26:41 86° E 05:32:50 10° N
Cosmos 1244 Rocket 4.4 05:27:54 60° SSW 05:29:09 85° W 05:35:22 10° N
BREEZE-M R/B 3.4 05:30:04 61° ESE 05:30:04 61° ESE 05:33:08 10° ENE
Timation 2 Rocket 4.1 05:23:20 10° NNW 05:29:40 69° ENE 05:32:00 39° SE
COSMOS 2455 3.2 05:28:14 44° WSW 05:29:50 59° NW 05:35:48 10° NNE
Cosmos 2228 3.8 05:27:25 10° NNW 05:30:44 42° WNW 05:30:44 42° WNW
Cosmos 1809 Rocket 4.5 05:31:04 56° SW 05:32:15 70° W 05:38:27 10° N
SL-16 R/B 3.8 05:28:38 16° ESE 05:32:51 35° ENE 05:38:21 10° N
Cosmos 1745 Rocket 4.4 05:32:39 42° SE 05:34:17 54° E 05:40:14 10° NNE
Cosmos 921 Rocket 3.1 05:37:25 68° ENE 05:37:25 68° ENE 05:41:19 10° NNE
SJ 16-02 3.7 05:34:29 10° NNE 05:37:46 20° ENE 05:40:52 11° ESE
CZ-4 R/B 4.3 05:34:38 10° N 05:39:16 49° WNW 05:39:34 48° W
Cosmos 2058 Rocket 3.1 05:39:18 10° NNW 05:43:24 69° WNW 05:43:24 69° WNW
CZ-2D R/B 3.1 05:45:09 10° NNE 05:49:58 36° E 05:51:15 31° SE
ATLAS CENTAUR R/B 2.7 05:50:01 30° WNW 05:50:40 32° NW 05:54:26 10° NNE
FALCON 9 DEB 4.3 05:53:06 42° NNE 05:53:06 42° NNE 05:55:35 10° NE
Resurs 1-4 Rocket 3.0 05:47:23 10° NNE 05:52:20 39° E 05:53:41 33° SE
Cosmos 1626 Rocket 3.5 05:54:16 70° E 05:54:18 70° E 05:58:37 10° NNE
Cosmos 220 Rocket 3.9 05:55:59 87° NW 05:55:59 87° NW 06:00:25 10° NNE
Okean 1-7 Rocket 4.2 05:57:24 44° WNW 05:57:24 44° WNW 06:01:42 10° N
Cosmos 1697 Rocket 4.2 05:57:02 21° SE 05:58:49 25° ESE 06:03:19 10° NE
STARLINK-1353 4.4 06:00:57 37° ENE 06:00:57 37° ENE 06:03:19 10° ENE
Cosmos 2227 Rocket 3.4 05:55:16 10° NNW 06:00:37 41° ENE 06:05:56 10° SE
STARLINK-1375 4.3 06:03:06 39° ENE 06:03:06 39° ENE 06:05:32 10° ENE
RESURS DK-1 3.0 06:03:12 44° WNW 06:03:17 44° WNW 06:07:16 10° NNE
GEOS 3 Rocket 3.5 06:01:42 44° SSE 06:03:25 86° SW 06:08:42 10° NW
STARLINK-1350 4.2 06:05:48 44° ENE 06:05:48 44° ENE 06:08:24 10° ENE
STARLINK-1352 4.0 06:08:16 48° ENE 06:08:16 48° ENE 06:10:59 10° NE
Cosmos 1626 3.5 06:09:01 29° WNW 06:09:01 29° WNW 06:11:45 10° NNW
Meteor 2-1 Rocket 4.4 06:03:26 10° N 06:08:56 67° ENE 06:11:08 37° SSE
CZ-4C R/B 3.8 06:09:10 54° ESE 06:09:54 65° ENE 06:14:13 10° N
STARLINK-1368 3.9 06:10:44 52° ENE 06:10:44 52° ENE 06:13:34 10° NE
Meteor 1-24 Rocket 4.2 06:09:34 38° W 06:10:31 42° WNW 06:15:38 10° N
CZ-4B R/B 4.4 06:06:39 10° NNE 06:11:34 42° E 06:13:19 32° SE
STARLINK-1369 3.7 06:13:13 56° ENE 06:13:13 56° ENE 06:16:09 10° NE
NPP 4.2 06:07:26 10° NNE 06:12:41 51° E 06:14:28 37° SSE
BREEZE M DEB (TANK) 3.9 06:12:50 28° N 06:13:30 33° NNE 06:17:07 10° E
Cosmos 1300 3.8 06:10:10 10° NNW 06:12:54 34° WNW 06:12:54 34° WNW
Cosmos 1656 3.9 06:12:40 45° SSE 06:14:11 62° ESE 06:19:45 10° NNE
SL-19 R/B 4.5 06:09:27 10° N 06:14:48 59° WNW 06:16:20 44° SW
STARLINK-1372 3.6 06:15:43 61° ENE 06:15:43 61° ENE 06:18:46 10° NE
Meteor 2-10 Rocket 4.0 06:12:30 10° N 06:17:41 54° ENE 06:20:12 28° SE
STARLINK-1378 3.5 06:18:14 66° NE 06:18:14 66° NE 06:21:23 10° NE
Cosmos 1356 Rocket 3.4 06:13:56 10° NNW 06:18:03 68° W 06:18:03 68° W
Cosmos 1812 Rocket 3.6 06:14:20 10° N 06:18:49 76° E 06:19:41 56° SSE
Cosmos 1386 Rocket 4.4 06:17:38 46° SSW 06:19:29 74° W 06:25:39 10° N
STARLINK-1329 3.4 06:20:03 69° NE 06:20:03 69° NE 06:23:18 10° NE
STARLINK-1379 3.4 06:20:45 70° NE 06:20:45 70° NE 06:24:00 10° NE
STARLINK-1365 3.4 06:22:15 73° NNE 06:22:15 73° NNE 06:25:39 10° NE
STARLINK-1362 3.4 06:22:39 73° NNE 06:22:39 73° NNE 06:26:00 10° NE
Cosmos 1709 Rocket 4.0 06:21:34 37° S 06:24:05 73° E 06:30:12 10° NNE
STARLINK-1373 3.3 06:24:57 74° N 06:24:57 74° N 06:28:24 10° NE
STARLINK-1320 3.7 06:27:12 49° NNE 06:27:12 49° NNE 06:29:45 10° NE
STARLINK-1322 3.7 06:27:32 49° NNE 06:27:32 49° NNE 06:30:05 10° NE
STARLINK-1390 3.3 06:27:13 74° NNW 06:27:13 74° NNW 06:30:45 10° NE
CZ-4C R/B 2.6 06:25:54 36° SSE 06:27:08 43° ESE 06:32:26 10° NE
STARLINK-1324 3.7 06:27:52 49° N 06:27:52 49° N 06:30:26 10° NE
Cosmos 1825 Rocket 4.3 06:26:22 35° SE 06:27:34 45° E 06:31:42 10° NNE
STARLINK-1294 3.7 06:28:09 49° N 06:28:09 49° N 06:30:46 10° NE
STARLINK-1261 3.7 06:28:31 49° N 06:28:31 49° N 06:31:06 10° NE
Cosmos 1602 Rocket 3.5 06:27:39 60° WSW 06:28:04 64° W 06:32:22 10° N
STARLINK-1325 3.7 06:28:50 49° N 06:28:50 49° N 06:31:27 10° NE
STARLINK-1333 3.7 06:29:11 49° N 06:29:11 49° N 06:31:47 10° NE
STARLINK-1334 3.7 06:29:29 49° N 06:29:29 49° N 06:32:06 10° NE
STARLINK-1326 3.7 06:29:49 49° N 06:29:49 49° N 06:32:27 10° NE
STARLINK-1323 3.7 06:30:08 50° N 06:30:08 50° N 06:32:47 10° NE
STARLINK-1349 3.7 06:30:28 50° N 06:30:28 50° N 06:33:08 10° NE
STARLINK-1336 3.7 06:30:48 50° N 06:30:48 50° N 06:33:27 10° NE
STARLINK-1331 3.7 06:31:07 50° N 06:31:07 50° N 06:33:48 10° NE
STARLINK-1344 3.7 06:31:27 50° N 06:31:27 50° N 06:34:09 10° NE
STARLINK-1343 3.7 06:31:46 50° N 06:31:46 50° N 06:34:28 10° NE
STARLINK-1346 3.6 06:32:03 50° N 06:32:03 50° N 06:34:50 10° NE
STARLINK-1328 3.6 06:32:25 49° N 06:32:25 49° N 06:35:08 10° NE
STARLINK-1354 3.6 06:32:44 49° N 06:32:44 49° N 06:35:29 10° NE
STARLINK-1347 3.6 06:33:04 49° N 06:33:04 49° N 06:35:50 10° NE
STARLINK-1357 3.6 06:33:23 49° N 06:33:23 49° N 06:36:08 10° NE
Cosmos-2242 3.9 06:29:05 10° N 06:33:10 44° ENE 06:35:15 25° SE
STARLINK-1335 3.6 06:33:45 49° N 06:33:45 49° N 06:36:32 10° NE
STARLINK-1327 3.6 06:34:03 49° NNW 06:34:03 49° NNW 06:36:51 10° NE
STARLINK-1340 3.6 06:34:22 49° NNW 06:34:22 49° NNW 06:37:10 10° NE
STARLINK-1197 4.4 06:30:13 10° NW 06:34:17 53° NNE 06:38:20 10° ESE
STARLINK-1356 3.6 06:34:41 49° NNW 06:34:41 49° NNW 06:37:30 10° NE
STARLINK-1345 3.6 06:35:01 49° NNW 06:35:01 49° NNW 06:37:51 10° NE
STARLINK-1355 3.6 06:35:20 48° NNW 06:35:20 48° NNW 06:38:10 10° NE
STARLINK-1321 3.6 06:35:41 48° NNW 06:35:41 48° NNW 06:38:31 10° NE
STARLINK-1358 3.6 06:36:00 48° NNW 06:36:00 48° NNW 06:38:51 10° NE
STARLINK-1332 3.6 06:36:22 48° NNW 06:36:22 48° NNW 06:39:14 10° NE
STARLINK-1348 3.6 06:36:39 48° NNW 06:36:39 48° NNW 06:39:32 10° NE
STARLINK-1330 3.6 06:36:58 47° NNW 06:36:58 47° NNW 06:39:51 10° NE
STARLINK-1363 3.6 06:37:19 47° NNW 06:37:19 47° NNW 06:40:13 10° NE
STARLINK-1337 3.6 06:37:38 47° NNW 06:37:38 47° NNW 06:40:33 10° NE
STARLINK-1342 3.6 06:37:56 47° NNW 06:37:56 47° NNW 06:40:52 10° NE
STARLINK-1364 3.7 06:38:16 46° NNW 06:38:16 46° NNW 06:41:13 10° NE
Cosmos 2369 4.2 06:36:08 31° SSE 06:38:29 50° ESE 06:43:55 10° NE
STARLINK-1376 3.7 06:38:36 46° NNW 06:38:36 46° NNW 06:41:33 10° NE
STARLINK-1360 3.7 06:38:56 46° NNW 06:38:56 46° NNW 06:41:54 10° NE
STARLINK-1361 3.7 06:39:15 46° NNW 06:39:15 46° NNW 06:42:13 10° NE
STARLINK-1198 4.2 06:35:13 10° NW 06:39:19 57° NNE 06:43:24 10° ESE
STARLINK-1367 3.7 06:39:31 46° NNW 06:39:31 46° NNW 06:42:34 10° NE
STARLINK-1366 3.7 06:39:55 45° NNW 06:39:55 45° NNW 06:42:55 10° NE
Meteor 1-21 Rocket 4.2 06:42:12 40° SSW 06:44:16 75° W 06:49:59 10° N
STARLINK-1199 4.1 06:40:10 10° NW 06:44:17 62° NNE 06:48:23 10° ESE
Cosmos 1763 Rocket 3.4 06:44:29 41° S 06:46:17 83° ESE 06:51:24 10° NNE
Nadezhda 1 Rocket 4.4 06:40:32 10° NNW 06:46:20 44° W 06:48:24 33° SW
ATLAS 3B R/B 3.4 06:40:45 10° NW 06:46:36 31° WSW 06:47:29 30° SW
IRS-1D 3.9 06:42:41 10° NNE 06:47:58 61° E 06:50:36 29° S
STARLINK-1210 3.9 06:45:08 10° NW 06:49:16 67° NNE 06:53:23 10° ESE
Lacrosse 4 Rocket 3.3 06:45:52 10° N 06:49:44 31° NE 06:53:30 10° ESE
GP-B 3.1 06:45:30 10° N 06:49:57 80° E 06:51:38 38° S
UNK 3.8 06:49:10 45° SSW 06:50:15 57° W 06:54:48 10° NNW
Cosmos 1980 Rocket 3.3 06:48:47 20° SSE 06:52:00 36° ESE 06:57:06 10° NE
Cosmos 1328 3.8 06:52:52 46° S 06:53:58 79° E 06:57:57 10° N
STARLINK-1219 3.8 06:50:06 10° NW 06:54:15 72° NE 06:58:23 10° ESE
Cosmos 1455 2.0 06:51:15 10° NNW 06:54:59 69° W 06:55:32 58° SSW
Cosmos 2219 3.4 06:51:15 10° NNW 06:56:43 51° WSW 06:59:00 32° SSW
STARLINK-1211 3.7 06:55:05 10° NW 06:59:15 79° NE 07:03:23 10° ESE
MOZ.5/SAFIR/RUBIN 5/SL-8 4.5 06:59:56 32° WSW 07:00:27 33° W 07:04:39 10° NNW
SL-4 R/B 4.3 06:59:19 10° WNW 07:03:28 27° N 07:07:30 10° NE
STARLINK-1245 3.6 07:00:03 10° NW 07:04:13 85° NE 07:08:21 10° SE
ATLAS CENTAUR R/B 2.1 07:02:03 10° NW 07:05:17 77° SW 07:13:02 10° SE
Cosmos 2074 Rocket 4.4 07:01:40 17° SSE 07:06:32 62° E 07:12:44 10° NNE
Cosmos 1758 Rocket 3.8 07:05:35 38° SW 07:06:51 52° W 07:11:07 10° N
H-2A R/B 4.3 07:04:06 10° ESE 07:07:40 25° ENE 07:11:18 10° N
Cosmos 2297 Rocket 2.4 07:03:14 10° NW 07:08:40 51° WSW 07:11:45 25° S
STARLINK-1233 3.5 07:05:02 10° NW 07:09:11 88° SW 07:13:20 10° SE
BREEZE-M DEB (TANK) 2.4 07:12:10 40° NW 07:12:21 42° NNW 07:14:46 10° NE
ARIANE 5 R/B 3.2 07:09:00 10° NNE 07:13:54 48° E 07:17:45 16° S
STARLINK-1204 3.5 07:10:02 10° NW 07:14:10 81° SW 07:18:19 10° SE
Cosmos 2082 3.7 07:08:46 10° NNW 07:14:27 89° ENE 07:20:05 10° SSE
AQUA 4.2 07:09:52 10° N 07:14:29 51° WNW 07:16:34 30° SW
BREEZE-M DEB (TANK) 3.9 07:12:54 27° SSW 07:15:14 52° SE 07:28:32 10° ENE
SL-16 R/B 3.1 07:13:42 27° SW 07:16:21 39° W 07:22:05 10° NNW
SJ 16-02 1.8 07:12:21 10° NNW 07:16:31 40° WSW 07:17:47 32° SW
Cosmos 2278 3.8 07:15:36 24° SSW 07:19:02 74° ESE 07:24:42 10° NNE
CRYOSAT 2 4.3 07:14:13 10° N 07:19:09 87° W 07:22:17 23° S
STARLINK-1238 3.5 07:15:02 10° NW 07:19:10 74° SW 07:23:17 10° SE
Cosmos 1898 Rocket 3.7 07:14:15 10° NNW 07:19:26 53° WSW 07:22:50 21° S
Cosmos 2263 Rocket 4.5 07:15:50 10° N 07:20:30 26° NE 07:25:07 10° ESE
Cosmos 2184 Rocket 4.1 07:15:38 17° S 07:20:31 76° E 07:26:41 10° N
ADEOS II 2.0 07:15:31 10° NNE 07:20:48 88° WNW 07:24:11 23° SSW
Cosmos 1953 Rocket 3.6 07:21:24 30° SSW 07:23:31 64° W 07:27:57 10° N
STARLINK-1201 3.5 07:20:01 10° WNW 07:24:08 67° SW 07:28:14 10° SE
Cosmos 1937 Rocket 3.5 07:20:58 10° NNW 07:26:10 65° WSW 07:31:08 11° S
IRS-P3 4.1 07:22:47 10° NNE 07:28:09 84° WNW 07:31:50 21° SSW
STARLINK-1206 3.5 07:25:00 10° WNW 07:29:05 61° SW 07:33:10 10° SE
CZ-2D R/B 3.2 07:25:24 10° N 07:29:53 29° WNW 07:32:35 19° WSW
Cosmos 1570 Rocket 4.1 07:26:49 25° SW 07:29:55 67° WNW 07:35:13 10° NNE
Cosmos 1703 4.2 07:29:00 26° WSW 07:30:18 33° WNW 07:33:55 10° N
Cosmos 1400 Rocket 2.8 07:26:46 10° N 07:30:55 89° ENE 07:34:36 13° S
Resurs 1-4 Rocket 3.3 07:27:32 10° N 07:31:59 28° WNW 07:34:46 18° WSW
Meteor 1-11 4.2 07:29:36 21° SSW 07:33:31 75° WNW 07:39:07 10° N
Cosmos 1842 Rocket 4.3 07:29:10 10° N 07:33:35 54° E 07:37:56 10° SSE
STARLINK-1205 3.6 07:30:00 10° WNW 07:34:03 56° SW 07:38:06 10° SE
Cosmos 2181 Rocket 4.3 07:28:03 10° NNW 07:34:12 50° W 07:38:57 17° SSW
Cosmos 2208 Rocket 4.0 07:32:31 23° SSW 07:35:49 71° WNW 07:41:08 10° NNE
STARLINK-43 3.5 07:36:02 28° SSW 07:37:46 61° SE 07:41:24 10° ENE
STARLINK-1218 3.7 07:34:59 10° WNW 07:39:01 51° SW 07:43:01 10° SSE
Cosmos 1814 Rocket 4.1 07:38:33 21° SSW 07:42:12 70° WNW 07:47:33 10° NNE
IDEFIX/ARIANE 42P 3.5 07:37:09 10° NNE 07:42:13 46° E 07:47:15 10° S
Cosmos 1697 Rocket 3.2 07:38:46 20° SW 07:42:26 48° WNW 07:47:56 10° NNE
STARLINK-1254 3.8 07:40:00 10° WNW 07:43:58 46° SW 07:47:55 10° SSE
Cosmos 2227 Rocket 3.0 07:39:37 10° NW 07:44:29 30° WSW 07:47:50 17° SSW
SL-08 R/B 3.2 07:41:22 10° S 07:46:01 66° WSW 07:50:39 10° NNW
CZ-2C R/B 3.9 07:42:50 10° NNE 07:46:20 38° E 07:49:51 10° SSE
BREEZE-M DEB (TANK) 4.0 07:46:18 10° NW 07:48:04 18° N 07:50:12 10° ENE
STARLINK-1231 3.9 07:45:01 10° WNW 07:48:56 42° SW 07:52:50 10° SSE
Cosmos 540 Rocket 3.8 07:46:55 19° SW 07:50:26 53° WNW 07:55:28 10° N
BREEZE-M R/B 4.3 07:49:05 10° WNW 07:52:11 23° NNW 07:54:26 10° NE
SL-16 R/B 3.6 07:47:30 10° SSE 07:52:30 33° ESE 07:57:31 10° NE
Cosmos 2154 Rocket 4.1 07:46:37 10° S 07:52:55 86° E 07:59:13 10° N
CZ-2D R/B 3.5 07:49:26 10° NNE 07:53:36 82° ESE 07:57:35 12° S
Cosmos 1315 Rocket 3.5 07:49:57 10° N 07:53:48 55° ENE 07:57:39 10° SSE
STARLINK-1232 4.1 07:50:03 10° WNW 07:53:53 38° SW 07:57:44 10° SSE
IRIDIUM 114 4.5 07:49:23 10° S 07:54:34 79° E 07:59:48 10° N
STARLINK-1224 4.4 07:52:11 10° NW 07:56:16 55° NNE 08:00:20 10° ESE
COBE Rocket 3.9 07:51:46 10° S 07:56:40 73° W 08:01:45 10° NNW
Iridium 2 3.7 07:55:03 10° N 07:58:46 62° W 08:02:25 10° S
STARLINK-1208 4.2 07:55:04 10° WNW 07:58:50 34° SW 08:02:36 10° SSE
ERS-2 2.1 07:55:48 10° S 07:59:25 64° WSW 08:03:04 10° NNW
STARLINK-1225 4.2 07:57:08 10° NW 08:01:15 60° NNE 08:05:20 10° ESE
IRIDIUM 103 4.3 07:58:31 10° S 08:03:44 86° W 08:08:59 10° N
STARLINK-1271 4.3 08:00:06 10° WNW 08:03:47 31° SW 08:07:27 10° SSE
BREEZE-M DEB (TANK) 1.1 08:01:41 10° WNW 08:03:47 57° SSW 08:06:17 10° SE
CZ-4C R/B 3.1 08:00:14 10° SSE 08:03:48 82° ENE 08:07:28 10° N
STARLINK-1230 4.1 08:02:07 10° NW 08:06:14 65° NE 08:10:21 10° ESE
STARLINK-1154 4.4 08:05:08 10° WNW 08:08:43 29° SW 08:12:17 10° SSE
Cosmos 372 Rocket 4.0 08:04:23 10° NNW 08:09:26 59° WSW 08:14:29 10° S
STARLINK-1243 4.0 08:07:05 10° NW 08:11:13 70° NE 08:15:21 10° ESE
Cosmos 841 Rocket 4.5 08:07:29 13° WSW 08:11:31 33° WNW 08:16:16 10° N
Cosmos 2221 2.5 08:08:31 10° NNW 08:12:50 69° W 08:17:09 10° S
CZ-4C R/B 3.4 08:11:11 10° WSW 08:15:46 32° NW 08:21:08 10° NNE
STARLINK-1236 3.8 08:12:04 10° NW 08:16:14 76° NE 08:20:22 10° ESE
STARLINK-42 3.5 08:13:40 13° SSW 08:16:17 48° SE 08:19:24 10° ENE
Uosat 12 SS-18 rocket 4.2 08:14:31 10° NW 08:18:43 52° WSW 08:23:16 10° SSE
STARLINK-1301 4.1 08:16:27 11° SSW 08:19:31 38° SE 08:22:44 10° ENE
STARLINK-1316 4.1 08:17:22 11° SSW 08:20:07 33° SE 08:22:58 10° ENE
STARLINK-1311 3.8 08:17:38 11° SSW 08:20:13 37° SE 08:22:59 10° ENE
STARLINK-1257 4.0 08:18:14 10° SSW 08:21:01 34° SE 08:23:53 10° ENE
Cosmos 2151 4.5 08:17:39 10° SSE 08:21:33 37° E 08:25:31 10° NNE
STARLINK-1256 4.0 08:19:06 10° SSW 08:21:55 35° SE 08:24:47 10° ENE
IRIDIUM 106 4.5 08:16:56 10° SSW 08:22:04 58° W 08:27:13 10° N
STARLINK-1307 4.2 08:19:22 10° SSW 08:22:34 36° SE 08:25:48 10° ENE
STARLINK-1213 4.0 08:19:58 10° SSW 08:22:49 35° SE 08:25:42 10° ENE
STARLINK-1263 3.9 08:20:50 10° SSW 08:23:42 36° SE 08:26:36 10° ENE
STARLINK-1290 4.1 08:21:06 10° SSW 08:24:17 37° SE 08:27:27 10° ENE
USA 234 3.7 08:17:57 10° NE 08:24:24 59° SE 08:30:49 10° SSW
STARLINK-1259 3.9 08:21:44 10° SSW 08:24:37 37° SE 08:27:32 10° ENE
STARLINK 1040 3.3 08:22:42 11° WSW 08:25:02 41° NNW 08:27:31 10° NE
STARLINK-1265 3.9 08:22:12 10° SSW 08:25:07 37° SE 08:28:03 10° ENE
Cosmos 2058 2.9 08:21:10 10° SSW 08:25:20 72° W 08:29:33 10° N
STARLINK-1285 3.9 08:22:36 10° SSW 08:25:29 38° SE 08:28:25 10° ENE
STARLINK-1269 3.6 08:22:00 10° NW 08:26:09 90° NE 08:30:18 10° SE
STARLINK-1297 4.0 08:23:41 10° SSW 08:26:52 39° SE 08:30:04 10° ENE
STARLINK-1268 3.8 08:24:05 10° SSW 08:26:59 39° SE 08:29:54 10° ENE
STARLINK-1296 3.8 08:24:24 10° SSW 08:27:19 39° SE 08:30:16 10° ENE
STARLINK-1260 3.8 08:25:17 10° SSW 08:28:13 40° SE 08:31:11 10° ENE
Nadezhda 3 Rocket 4.2 08:22:11 10° NNW 08:28:17 56° W 08:34:27 10° SSW
Lacrosse 4 Rocket 2.4 08:24:43 10° NW 08:28:19 26° WSW 08:31:48 10° SSW
Cosmos 2360 Rocket 4.0 08:23:49 10° SSE 08:28:30 28° ESE 08:33:13 10° NE
STARLINK-1318 3.7 08:26:10 10° SSW 08:29:08 41° SE 08:32:05 10° ENE
STARLINK-1275 3.7 08:27:01 10° SSW 08:29:59 42° SE 08:32:57 10° ENE
STARLINK-62 4.4 08:27:34 10° SSW 08:30:23 30° SE 08:33:13 10° ENE
STARLINK-26 3.1 08:27:13 10° SW 08:30:36 85° SE 08:34:03 10° NE
STARLINK-1309 3.7 08:27:57 10° SSW 08:30:54 43° SE 08:33:53 10° ENE
STARLINK-1200 3.6 08:27:00 10° NW 08:31:09 83° SW 08:35:17 10° SE
Meteor 1-28 Rocket 4.3 08:28:09 10° SSW 08:31:22 26° W 08:34:34 10° NW
STARLINK-1282 3.6 08:28:49 10° SSW 08:31:47 44° SE 08:34:46 10° ENE
STARLINK-34 4.3 08:29:26 10° SSW 08:32:16 31° SE 08:35:08 10° ENE
STARLINK-1313 3.3 08:29:49 10° SW 08:32:50 53° SE 08:35:53 10° ENE
STARLINK-55 2.9 08:29:58 10° SW 08:33:10 87° SE 08:36:22 10° NE
MSX 3.9 08:27:38 10° NNE 08:33:26 90° ENE 08:39:11 10° SSW
STARLINK-1279 3.3 08:30:46 10° SW 08:33:47 54° SE 08:36:51 10° ENE
STARLINK-1298 3.5 08:31:29 10° SSW 08:34:29 47° SE 08:37:30 10° ENE
USA 229 DEB 4.4 08:28:07 10° NNW 08:35:24 68° NE 08:42:59 10° SE
STARLINK-1293 3.5 08:32:25 10° SW 08:35:25 48° SE 08:38:26 10° ENE
USA 229 4.4 08:28:14 10° NNW 08:35:30 67° NE 08:43:05 10° SE
Cosmos 1980 Rocket 3.1 08:30:55 10° WSW 08:35:58 34° WNW 08:41:06 10° N
STARLINK-1192 3.6 08:32:00 10° NW 08:36:08 77° SW 08:40:16 10° SE
STARLINK-1255 3.4 08:34:08 10° SW 08:37:09 50° SE 08:40:12 10° ENE
Cosmos 2084 Rocket 3.5 08:35:43 10° NW 08:40:12 82° SW 08:44:43 10° SSE
STARLINK-1244 3.6 08:36:58 10° WNW 08:41:06 70° SW 08:45:13 10° SE
NOSS 3-1 (C) 4.4 08:34:25 10° NW 08:42:05 80° NE 08:50:47 10° SE
Cosmos 2341 Rocket 4.1 08:36:04 10° SSW 08:42:26 72° W 08:48:48 10° N
